Location: Unspecified
(0.0000°N, 0.0000°E)
Time: 10:58:01
(UTC+00:00)

ISS - Pass Details

Date: 18 March 2019
Orbit: 408 x 411 km, 51.6° (Epoch: 24 March)

Event Time Altitude Azimuth Distance (km) Brightness Sun altitude
Rises 18:32:26 0° 226° (SW) 2,332 0.8 -6.1°
Reaches altitude 10° 18:34:35 10° 233° (SW) 1,468 -0.1 -6.6°
Maximum altitude 18:37:44 42° 305° (NW) 594 -2.5 -7.4°
Drops below altitude 10° 18:40:51 10° 18° (NNE) 1,459 -1.2 -8.2°
Sets 18:42:59 0° 25° (NNE) 2,316 -0.2 -8.7°
